GFSFLT2_prec_precacc24_093.txt.gz
Total_Precipitation_Accumulation
0.14 0.09 0.07 0.19 0.37 0.68 1.35 2.14 2.35 1.51 1.20 0.91 1.02 0.80 0.71 0.52 0.35 0.32 0.30 0.22 0.17 0.08 0.02 0.00 0.00 0.00 0.00 0.00 0.00 0.00 0.00 0.00
0.23 0.19 0.13 0.19 0.38 0.45 0.90 2.19 3.05 2.01 1.65 1.42 0.89 0.72 0.72 0.48 0.32 0.39 0.53 0.47 0.24 0.06 0.04 0.01 0.00 0.00 0.00 0.00 0.00 0.00 0.00 0.00
0.07 0.20 0.40 0.52 0.73 0.43 0.39 0.76 1.99 3.02 2.08 1.70 1.37 0.55 0.55 0.42 0.37 0.44 0.44 0.51 0.40 0.14 0.08 0.02 0.00 0.00 0.00 0.00 0.00 0.00 0.00 0.00
0.08 0.11 0.49 0.67 1.35 1.30 0.62 0.50 0.69 2.04 2.42 1.91 1.26 0.68 0.55 0.52 0.35 0.46 0.55 0.40 0.46 0.22 0.08 0.01 0.00 0.00 0.00 0.00 0.00 0.00 0.00 0.00
0.11 0.14 0.31 0.57 1.06 0.93 1.02 0.86 0.73 0.97 2.05 1.75 1.10 0.74 0.53 0.70 0.30 0.37 0.75 0.64 0.50 0.23 0.06 0.01 0.00 0.00 0.00 0.00 0.00 0.00 0.00 0.00
0.03 0.02 0.04 0.18 0.70 0.82 0.56 0.72 0.78 0.71 1.47 1.61 1.06 0.65 0.34 0.47 0.17 0.22 0.72 0.70 0.44 0.14 0.01 0.00 0.00 0.00 0.00 0.00 0.00 0.00 0.00 0.00
0.02 0.04 0.04 0.12 0.15 0.37 0.35 0.34 0.69 0.52 0.72 1.34 1.09 0.60 0.22 0.25 0.19 0.12 0.50 0.53 0.49 0.09 0.00 0.00 0.00 0.00 0.00 0.00 0.00 0.00 0.00 0.00
0.01 0.09 0.07 0.12 0.07 0.14 0.14 0.19 0.43 0.62 0.57 0.73 1.16 0.64 0.32 0.30 0.21 0.08 0.30 0.33 0.30 0.10 0.01 0.00 0.00 0.00 0.00 0.00 0.00 0.00 0.00 0.00
0.01 0.16 0.16 0.13 0.14 0.21 0.11 0.13 0.26 0.51 0.52 0.64 0.95 0.71 0.48 0.29 0.26 0.10 0.16 0.17 0.12 0.07 0.01 0.00 0.00 0.00 0.00 0.00 0.00 0.00 0.00 0.00
0.03 0.04 0.06 0.12 0.07 0.39 0.30 0.13 0.20 0.34 0.41 0.54 0.79 0.82 0.54 0.38 0.25 0.13 0.15 0.14 0.06 0.02 0.00 0.00 0.00 0.00 0.00 0.00 0.00 0.00 0.00 0.00
0.02 0.04 0.08 0.11 0.16 0.25 0.25 0.28 0.20 0.25 0.26 0.35 0.61 0.91 0.52 0.35 0.26 0.11 0.18 0.13 0.04 0.01 0.00 0.00 0.00 0.00 0.00 0.00 0.00 0.00 0.00 0.00
0.02 0.02 0.10 0.22 0.24 0.16 0.22 0.27 0.21 0.27 0.21 0.29 0.48 0.96 0.58 0.31 0.25 0.18 0.21 0.13 0.03 0.00 0.00 0.00 0.00 0.00 0.00 0.00 0.00 0.00 0.00 0.00
0.01 0.03 0.05 0.09 0.16 0.14 0.14 0.16 0.10 0.14 0.13 0.30 0.38 0.65 0.67 0.25 0.12 0.14 0.09 0.05 0.01 0.00 0.00 0.02 0.01 0.00 0.00 0.00 0.00 0.00 0.00 0.00
0.01 0.01 0.02 0.02 0.03 0.03 0.05 0.06 0.06 0.05 0.08 0.16 0.61 0.47 0.45 0.29 0.12 0.05 0.02 0.02 0.01 0.00 0.00 0.01 0.02 0.04 0.02 0.02 0.02 0.01 0.00 0.00
0.00 0.01 0.01 0.01 0.02 0.02 0.03 0.09 0.13 0.13 0.12 0.13 0.40 0.36 0.30 0.36 0.21 0.11 0.03 0.02 0.01 0.00 0.00 0.01 0.07 0.04 0.02 0.13 0.17 0.14 0.14 0.03
0.00 0.00 0.01 0.01 0.02 0.02 0.01 0.02 0.05 0.05 0.05 0.06 0.20 0.25 0.26 0.32 0.30 0.18 0.06 0.03 0.03 0.02 0.00 0.01 0.17 0.21 0.03 0.01 0.04 0.15 0.20 0.21
0.00 0.00 0.01 0.01 0.01 0.02 0.02 0.01 0.01 0.02 0.06 0.10 0.18 0.29 0.24 0.32 0.34 0.26 0.14 0.07 0.10 0.13 0.07 0.07 0.13 0.19 0.06 0.09 0.05 0.10 0.10 0.09
0.00 0.00 0.00 0.01 0.01 0.02 0.01 0.01 0.01 0.01 0.03 0.03 0.06 0.18 0.17 0.21 0.38 0.30 0.20 0.15 0.15 0.14 0.15 0.17 0.21 0.19 0.10 0.08 0.06 0.07 0.07 0.09
0.00 0.00 0.00 0.00 0.01 0.01 0.01 0.01 0.01 0.00 0.00 0.00 0.00 0.03 0.05 0.03 0.10 0.18 0.16 0.10 0.07 0.13 0.13 0.15 0.15 0.11 0.09 0.04 0.05 0.04 0.05 0.14
0.00 0.00 0.00 0.00 0.01 0.01 0.01 0.00 0.01 0.00 0.00 0.00 0.00 0.00 0.01 0.02 0.01 0.05 0.07 0.04 0.04 0.05 0.05 0.06 0.07 0.07 0.08 0.08 0.05 0.04 0.05 0.13

GFSFLT2_prec_precacc24_096.txt.gz
Total_Precipitation_Accumulation
0.08 0.07 0.06 0.16 0.22 0.44 0.97 1.84 2.31 1.55 1.28 1.01 1.09 0.83 0.71 0.52 0.38 0.33 0.30 0.25 0.34 0.33 0.22 0.08 0.01 0.00 0.00 0.00 0.00 0.00 0.00 0.00
0.03 0.13 0.10 0.10 0.19 0.34 0.77 1.92 2.81 1.91 1.66 1.53 1.10 0.94 0.78 0.49 0.33 0.40 0.54 0.50 0.36 0.24 0.26 0.16 0.05 0.00 0.00 0.00 0.00 0.00 0.00 0.00
0.03 0.11 0.16 0.18 0.22 0.22 0.27 0.62 1.81 2.82 1.92 1.66 1.43 0.57 0.56 0.43 0.38 0.44 0.46 0.55 0.56 0.45 0.35 0.17 0.07 0.02 0.00 0.00 0.00 0.00 0.00 0.00
0.06 0.05 0.24 0.29 0.24 0.36 0.25 0.26 0.51 1.92 2.28 1.80 1.20 0.67 0.55 0.52 0.35 0.45 0.56 0.44 0.60 0.59 0.40 0.18 0.10 0.01 0.01 0.00 0.00 0.00 0.00 0.00
0.03 0.08 0.18 0.17 0.16 0.20 0.28 0.42 0.43 0.78 1.89 1.65 1.06 0.72 0.53 0.71 0.30 0.40 0.78 0.69 0.61 0.51 0.29 0.16 0.10 0.03 0.01 0.00 0.00 0.00 0.00 0.00
0.02 0.02 0.01 0.01 0.17 0.44 0.27 0.43 0.55 0.52 1.28 1.53 1.04 0.66 0.34 0.48 0.18 0.27 0.80 0.77 0.49 0.28 0.17 0.14 0.08 0.04 0.01 0.00 0.00 0.00 0.00 0.00
0.01 0.02 0.01 0.01 0.03 0.23 0.24 0.28 0.55 0.37 0.58 1.29 1.09 0.62 0.24 0.26 0.21 0.21 0.58 0.56 0.64 0.31 0.18 0.12 0.05 0.02 0.00 0.00 0.00 0.00 0.00 0.00
0.01 0.02 0.03 0.02 0.02 0.06 0.08 0.17 0.39 0.52 0.47 0.72 1.17 0.67 0.34 0.33 0.26 0.17 0.34 0.34 0.50 0.47 0.16 0.09 0.04 0.00 0.00 0.00 0.00 0.00 0.00 0.00
0.01 0.02 0.04 0.04 0.02 0.09 0.05 0.10 0.24 0.46 0.47 0.64 0.95 0.73 0.51 0.36 0.34 0.18 0.18 0.19 0.23 0.34 0.13 0.07 0.02 0.00 0.00 0.00 0.00 0.00 0.00 0.00
0.01 0.01 0.02 0.05 0.03 0.21 0.17 0.06 0.12 0.30 0.38 0.54 0.79 0.83 0.57 0.46 0.34 0.18 0.18 0.16 0.11 0.17 0.05 0.04 0.02 0.01 0.00 0.00 0.00 0.00 0.00 0.00
0.01 0.02 0.01 0.05 0.08 0.12 0.14 0.12 0.09 0.18 0.24 0.35 0.62 0.92 0.56 0.43 0.40 0.24 0.23 0.19 0.09 0.08 0.03 0.03 0.01 0.01 0.00 0.00 0.00 0.00 0.00 0.00
0.01 0.02 0.02 0.03 0.11 0.08 0.15 0.17 0.10 0.15 0.12 0.28 0.50 0.99 0.68 0.54 0.54 0.33 0.33 0.23 0.17 0.09 0.03 0.03 0.02 0.00 0.00 0.00 0.00 0.00 0.00 0.00
0.01 0.02 0.02 0.03 0.08 0.10 0.08 0.11 0.06 0.08 0.08 0.29 0.40 0.70 0.82 0.51 0.42 0.34 0.23 0.16 0.11 0.05 0.01 0.01 0.01 0.00 0.00 0.00 0.00 0.00 0.00 0.00
0.01 0.01 0.02 0.02 0.02 0.02 0.02 0.02 0.03 0.04 0.04 0.15 0.61 0.62 0.66 0.53 0.35 0.22 0.16 0.13 0.10 0.04 0.01 0.01 0.00 0.01 0.00 0.01 0.02 0.01 0.00 0.00
0.00 0.01 0.01 0.01 0.01 0.02 0.01 0.05 0.11 0.11 0.08 0.10 0.34 0.41 0.50 0.45 0.40 0.22 0.13 0.11 0.05 0.01 0.00 0.01 0.06 0.01 0.01 0.12 0.16 0.12 0.12 0.03
0.00 0.00 0.01 0.01 0.02 0.02 0.01 0.02 0.05 0.05 0.05 0.05 0.11 0.21 0.34 0.42 0.38 0.29 0.13 0.11 0.04 0.01 0.00 0.00 0.14 0.14 0.02 0.01 0.04 0.13 0.18 0.20
0.00 0.00 0.01 0.01 0.01 0.02 0.02 0.01 0.01 0.02 0.05 0.08 0.08 0.14 0.23 0.39 0.43 0.31 0.16 0.08 0.05 0.06 0.04 0.06 0.12 0.12 0.03 0.08 0.05 0.10 0.10 0.09
0.00 0.00 0.00 0.01 0.01 0.02 0.01 0.01 0.01 0.01 0.02 0.03 0.04 0.10 0.15 0.27 0.48 0.36 0.21 0.14 0.11 0.09 0.10 0.11 0.17 0.16 0.07 0.06 0.05 0.07 0.07 0.08
0.00 0.00 0.00 0.00 0.01 0.01 0.01 0.01 0.00 0.00 0.01 0.01 0.00 0.03 0.05 0.08 0.18 0.29 0.23 0.15 0.11 0.13 0.11 0.12 0.13 0.09 0.08 0.05 0.05 0.03 0.03 0.11
0.00 0.00 0.00 0.00 0.01 0.01 0.01 0.00 0.01 0.00 0.00 0.01 0.01 0.01 0.01 0.02 0.03 0.10 0.14 0.15 0.07 0.07 0.07 0.07 0.07 0.07 0.07 0.07 0.05 0.04 0.04 0.10

GFSFLT2_prec_precacc24_099.txt.gz
Total_Precipitation_Accumulation
0.03 0.04 0.05 0.02 0.05 0.10 0.21 1.04 2.01 1.53 1.25 0.98 1.15 0.83 0.71 0.52 0.38 0.32 0.29 0.28 0.46 0.53 0.63 0.53 0.36 0.18 0.04 0.00 0.00 0.00 0.00 0.00
0.01 0.04 0.04 0.05 0.04 0.05 0.15 1.09 1.98 1.49 1.55 1.44 1.08 0.95 0.80 0.50 0.35 0.41 0.55 0.50 0.36 0.29 0.41 0.44 0.35 0.21 0.07 0.00 0.00 0.01 0.00 0.00
0.00 0.04 0.07 0.09 0.09 0.09 0.12 0.36 1.29 2.24 1.72 1.56 1.29 0.56 0.57 0.47 0.39 0.44 0.46 0.56 0.59 0.53 0.48 0.40 0.30 0.23 0.10 0.02 0.00 0.00 0.00 0.00
0.01 0.02 0.20 0.23 0.15 0.13 0.08 0.12 0.31 1.67 2.10 1.69 1.02 0.59 0.60 0.54 0.38 0.47 0.56 0.47 0.64 0.66 0.67 0.47 0.34 0.16 0.11 0.04 0.00 0.00 0.00 0.00
0.02 0.06 0.14 0.15 0.12 0.10 0.05 0.09 0.12 0.67 1.78 1.51 0.83 0.53 0.58 0.72 0.30 0.42 0.79 0.71 0.66 0.57 0.44 0.36 0.31 0.22 0.06 0.01 0.01 0.00 0.00 0.00
0.00 0.01 0.00 0.01 0.01 0.06 0.11 0.12 0.07 0.28 1.07 1.29 0.83 0.53 0.36 0.50 0.19 0.33 0.89 0.83 0.54 0.33 0.20 0.23 0.31 0.28 0.07 0.08 0.01 0.00 0.00 0.00
0.00 0.00 0.00 0.00 0.01 0.02 0.06 0.14 0.17 0.15 0.34 0.99 0.84 0.58 0.25 0.28 0.25 0.28 0.67 0.61 0.69 0.34 0.19 0.24 0.26 0.25 0.10 0.03 0.00 0.00 0.00 0.00
0.00 0.01 0.01 0.00 0.00 0.01 0.02 0.07 0.22 0.21 0.17 0.47 0.96 0.65 0.37 0.35 0.31 0.23 0.42 0.39 0.52 0.47 0.17 0.22 0.25 0.17 0.07 0.00 0.00 0.00 0.00 0.00
0.00 0.01 0.01 0.01 0.01 0.01 0.01 0.05 0.14 0.28 0.25 0.45 0.85 0.73 0.55 0.40 0.39 0.26 0.24 0.26 0.24 0.35 0.23 0.29 0.26 0.16 0.02 0.00 0.00 0.00 0.00 0.00
0.00 0.01 0.01 0.01 0.01 0.01 0.01 0.01 0.06 0.21 0.26 0.46 0.75 0.83 0.61 0.55 0.41 0.26 0.25 0.21 0.14 0.18 0.11 0.21 0.23 0.09 0.02 0.00 0.00 0.00 0.00 0.00
0.00 0.01 0.01 0.01 0.00 0.01 0.02 0.02 0.05 0.14 0.19 0.33 0.62 0.93 0.58 0.53 0.49 0.32 0.28 0.22 0.10 0.09 0.07 0.11 0.16 0.09 0.01 0.00 0.00 0.00 0.00 0.00
0.00 0.00 0.01 0.01 0.01 0.03 0.02 0.04 0.04 0.08 0.11 0.28 0.51 1.01 0.69 0.57 0.62 0.47 0.37 0.28 0.19 0.10 0.06 0.12 0.13 0.05 0.00 0.00 0.00 0.00 0.00 0.00
0.00 0.01 0.01 0.02 0.02 0.03 0.03 0.05 0.04 0.06 0.07 0.29 0.42 0.74 0.86 0.59 0.60 0.56 0.40 0.25 0.17 0.09 0.04 0.06 0.12 0.07 0.02 0.01 0.01 0.01 0.00 0.00
0.00 0.00 0.01 0.01 0.01 0.01 0.00 0.01 0.02 0.03 0.05 0.16 0.64 0.66 0.68 0.60 0.62 0.52 0.36 0.27 0.27 0.18 0.05 0.05 0.07 0.06 0.02 0.00 0.02 0.02 0.00 0.00
0.00 0.00 0.00 0.01 0.01 0.01 0.00 0.01 0.02 0.05 0.06 0.10 0.35 0.42 0.51 0.49 0.57 0.55 0.29 0.25 0.18 0.15 0.06 0.03 0.03 0.04 0.02 0.04 0.05 0.04 0.05 0.01
0.00 0.00 0.01 0.01 0.02 0.01 0.01 0.01 0.02 0.02 0.02 0.04 0.11 0.20 0.35 0.43 0.42 0.48 0.27 0.26 0.20 0.11 0.05 0.03 0.06 0.03 0.02 0.02 0.03 0.05 0.06 0.09
0.00 0.00 0.00 0.01 0.01 0.01 0.01 0.01 0.01 0.01 0.02 0.03 0.06 0.11 0.23 0.39 0.46 0.49 0.35 0.26 0.20 0.10 0.03 0.07 0.07 0.02 0.00 0.04 0.05 0.10 0.09 0.06
0.00 0.00 0.00 0.01 0.01 0.01 0.01 0.01 0.01 0.01 0.01 0.02 0.02 0.05 0.11 0.27 0.52 0.51 0.42 0.32 0.24 0.11 0.07 0.08 0.12 0.09 0.02 0.03 0.02 0.04 0.05 0.07
0.00 0.00 0.00 0.00 0.01 0.01 0.01 0.01 0.00 0.00 0.01 0.01 0.01 0.02 0.03 0.07 0.18 0.37 0.36 0.31 0.21 0.14 0.11 0.12 0.10 0.07 0.04 0.03 0.03 0.03 0.02 0.07
0.00 0.00 0.00 0.00 0.01 0.01 0.01 0.00 0.00 0.00 0.00 0.01 0.01 0.01 0.01 0.02 0.04 0.13 0.26 0.29 0.17 0.15 0.13 0.10 0.10 0.06 0.04 0.05 0.06 0.04 0.02 0.08

GFSFLT2_prec_precacc24_102.txt.gz
Total_Precipitation_Accumulation
0.00 0.03 0.05 0.02 0.05 0.08 0.17 0.28 0.44 0.77 1.11 0.97 1.15 0.83 0.71 0.58 0.41 0.34 0.29 0.28 0.46 0.53 0.65 0.66 0.55 0.39 0.26 0.14 0.06 0.02 0.04 0.01
0.00 0.02 0.03 0.04 0.04 0.04 0.06 0.10 0.29 0.62 1.25 1.20 1.08 0.99 0.81 0.52 0.36 0.43 0.56 0.52 0.36 0.29 0.41 0.48 0.44 0.31 0.22 0.13 0.05 0.04 0.03 0.01
0.00 0.02 0.04 0.04 0.06 0.07 0.07 0.08 0.17 0.60 1.10 1.18 1.16 0.63 0.62 0.49 0.47 0.47 0.48 0.56 0.59 0.53 0.48 0.41 0.36 0.31 0.20 0.13 0.08 0.02 0.03 0.01
0.00 0.01 0.13 0.09 0.05 0.11 0.06 0.09 0.09 0.49 1.37 1.40 0.98 0.51 0.46 0.41 0.41 0.48 0.57 0.47 0.64 0.66 0.68 0.52 0.39 0.21 0.19 0.14 0.03 0.05 0.01 0.01
0.00 0.01 0.05 0.04 0.02 0.07 0.05 0.06 0.07 0.18 1.22 1.41 0.80 0.42 0.42 0.53 0.32 0.44 0.81 0.71 0.66 0.58 0.44 0.37 0.34 0.28 0.14 0.08 0.10 0.04 0.02 0.00
0.00 0.01 0.00 0.01 0.01 0.05 0.09 0.09 0.04 0.05 0.55 1.24 0.76 0.47 0.31 0.34 0.20 0.38 0.92 0.86 0.56 0.34 0.21 0.24 0.32 0.35 0.23 0.21 0.04 0.03 0.02 0.00
0.00 0.00 0.00 0.00 0.01 0.02 0.05 0.10 0.07 0.05 0.18 0.85 0.74 0.51 0.24 0.26 0.22 0.34 0.75 0.72 0.76 0.38 0.20 0.24 0.27 0.33 0.28 0.20 0.03 0.02 0.01 0.00
0.00 0.00 0.00 0.00 0.00 0.01 0.01 0.03 0.09 0.11 0.10 0.36 0.82 0.57 0.35 0.36 0.32 0.28 0.48 0.52 0.60 0.48 0.18 0.22 0.25 0.24 0.26 0.14 0.01 0.02 0.01 0.00
0.00 0.00 0.00 0.00 0.00 0.01 0.01 0.02 0.08 0.12 0.13 0.28 0.71 0.64 0.49 0.39 0.40 0.29 0.29 0.33 0.29 0.38 0.26 0.30 0.28 0.26 0.20 0.12 0.01 0.00 0.00 0.00
0.00 0.00 0.00 0.00 0.00 0.00 0.01 0.01 0.04 0.14 0.16 0.28 0.64 0.80 0.57 0.52 0.41 0.32 0.34 0.28 0.18 0.20 0.11 0.22 0.31 0.26 0.20 0.08 0.01 0.00 0.00 0.00
0.00 0.00 0.01 0.00 0.00 0.00 0.01 0.01 0.03 0.11 0.14 0.25 0.56 0.92 0.58 0.52 0.49 0.37 0.37 0.31 0.15 0.10 0.07 0.11 0.23 0.26 0.17 0.07 0.00 0.00 0.00 0.00
0.00 0.00 0.01 0.01 0.00 0.01 0.01 0.02 0.03 0.08 0.09 0.25 0.49 1.00 0.69 0.58 0.62 0.49 0.41 0.31 0.22 0.11 0.06 0.13 0.16 0.15 0.12 0.05 0.00 0.00 0.00 0.00
0.00 0.00 0.01 0.01 0.01 0.00 0.02 0.02 0.03 0.05 0.07 0.29 0.42 0.74 0.87 0.62 0.62 0.57 0.43 0.27 0.18 0.11 0.04 0.07 0.20 0.19 0.12 0.04 0.02 0.01 0.00 0.00
0.00 0.00 0.00 0.01 0.01 0.00 0.00 0.01 0.02 0.03 0.05 0.16 0.64 0.66 0.70 0.62 0.63 0.52 0.40 0.36 0.33 0.21 0.06 0.06 0.15 0.18 0.09 0.01 0.04 0.04 0.01 0.00
0.00 0.00 0.00 0.01 0.01 0.01 0.00 0.01 0.02 0.03 0.05 0.10 0.35 0.42 0.52 0.50 0.58 0.59 0.42 0.43 0.46 0.31 0.09 0.04 0.06 0.16 0.07 0.01 0.01 0.02 0.01 0.01
0.00 0.00 0.00 0.00 0.01 0.01 0.00 0.00 0.01 0.01 0.01 0.04 0.11 0.20 0.35 0.43 0.42 0.53 0.38 0.42 0.39 0.31 0.15 0.08 0.06 0.07 0.04 0.01 0.00 0.02 0.00 0.02
0.00 0.00 0.00 0.00 0.01 0.01 0.01 0.00 0.00 0.01 0.01 0.02 0.05 0.11 0.23 0.39 0.46 0.50 0.44 0.41 0.33 0.22 0.17 0.12 0.08 0.05 0.00 0.01 0.01 0.04 0.03 0.01
0.00 0.00 0.00 0.01 0.01 0.01 0.01 0.00 0.00 0.01 0.01 0.02 0.02 0.05 0.11 0.27 0.52 0.52 0.49 0.46 0.43 0.24 0.16 0.13 0.12 0.11 0.04 0.03 0.01 0.02 0.03 0.03
0.00 0.00 0.00 0.00 0.01 0.01 0.01 0.00 0.00 0.00 0.01 0.01 0.01 0.02 0.03 0.08 0.18 0.37 0.41 0.45 0.42 0.37 0.26 0.19 0.18 0.14 0.08 0.05 0.03 0.03 0.01 0.02
0.00 0.00 0.00 0.00 0.01 0.01 0.01 0.00 0.00 0.00 0.00 0.01 0.01 0.01 0.01 0.02 0.04 0.13 0.29 0.42 0.35 0.34 0.31 0.20 0.18 0.15 0.08 0.05 0.04 0.03 0.01 0.02

GFSFLT2_prec_precacc24_105.txt.gz
Total_Precipitation_Accumulation
0.00 0.01 0.01 0.02 0.05 0.08 0.17 0.28 0.41 0.37 0.30 0.31 0.83 0.80 0.72 0.64 0.46 0.35 0.30 0.30 0.47 0.53 0.65 0.66 0.55 0.39 0.31 0.25 0.16 0.06 0.05 0.06
0.00 0.00 0.01 0.03 0.03 0.03 0.05 0.10 0.17 0.16 0.15 0.24 0.75 0.96 0.85 0.54 0.38 0.43 0.57 0.53 0.40 0.29 0.41 0.48 0.44 0.31 0.22 0.16 0.11 0.16 0.10 0.04
0.00 0.00 0.01 0.02 0.04 0.04 0.06 0.07 0.11 0.05 0.04 0.16 0.73 0.56 0.63 0.50 0.51 0.50 0.49 0.57 0.61 0.54 0.48 0.41 0.36 0.31 0.20 0.13 0.11 0.10 0.06 0.01
0.00 0.00 0.01 0.01 0.03 0.07 0.05 0.07 0.06 0.02 0.05 0.43 0.72 0.39 0.46 0.45 0.44 0.51 0.60 0.49 0.64 0.66 0.68 0.52 0.39 0.21 0.19 0.14 0.04 0.09 0.04 0.01
0.00 0.00 0.00 0.00 0.01 0.05 0.05 0.05 0.04 0.03 0.16 0.78 0.61 0.35 0.42 0.49 0.31 0.46 0.84 0.74 0.67 0.58 0.44 0.37 0.34 0.28 0.14 0.08 0.12 0.09 0.04 0.02
0.00 0.00 0.00 0.00 0.00 0.01 0.03 0.05 0.03 0.02 0.21 0.81 0.60 0.45 0.30 0.29 0.19 0.38 0.94 0.88 0.56 0.34 0.21 0.24 0.32 0.35 0.23 0.21 0.05 0.10 0.05 0.01
0.00 0.00 0.00 0.00 0.00 0.01 0.00 0.02 0.03 0.02 0.10 0.56 0.62 0.49 0.23 0.24 0.21 0.34 0.75 0.72 0.76 0.38 0.20 0.24 0.27 0.33 0.28 0.21 0.04 0.11 0.03 0.01
0.00 0.00 0.00 0.00 0.00 0.01 0.01 0.01 0.04 0.05 0.08 0.31 0.73 0.52 0.34 0.35 0.32 0.29 0.48 0.53 0.62 0.50 0.18 0.26 0.27 0.24 0.26 0.15 0.05 0.12 0.03 0.00
0.00 0.00 0.00 0.00 0.00 0.01 0.01 0.01 0.03 0.06 0.09 0.25 0.67 0.59 0.46 0.39 0.40 0.29 0.31 0.38 0.34 0.44 0.37 0.35 0.29 0.26 0.22 0.16 0.07 0.08 0.02 0.00
0.00 0.00 0.00 0.00 0.00 0.00 0.01 0.01 0.03 0.07 0.10 0.24 0.58 0.73 0.55 0.52 0.41 0.32 0.38 0.34 0.21 0.30 0.20 0.26 0.31 0.26 0.21 0.12 0.09 0.04 0.02 0.00
0.00 0.00 0.00 0.00 0.00 0.00 0.01 0.01 0.03 0.07 0.12 0.22 0.52 0.87 0.55 0.51 0.49 0.37 0.38 0.37 0.21 0.17 0.10 0.12 0.23 0.27 0.20 0.16 0.10 0.04 0.00 0.00
0.00 0.00 0.00 0.00 0.00 0.01 0.01 0.02 0.03 0.07 0.09 0.24 0.48 1.00 0.69 0.58 0.61 0.43 0.35 0.30 0.28 0.19 0.10 0.14 0.17 0.16 0.19 0.19 0.11 0.03 0.00 0.00
0.00 0.00 0.00 0.01 0.00 0.00 0.02 0.02 0.03 0.05 0.07 0.28 0.42 0.74 0.87 0.62 0.62 0.50 0.40 0.25 0.17 0.13 0.09 0.08 0.20 0.20 0.23 0.28 0.14 0.03 0.01 0.00
0.00 0.00 0.00 0.01 0.00 0.00 0.00 0.01 0.02 0.03 0.05 0.16 0.64 0.66 0.70 0.62 0.63 0.52 0.40 0.35 0.34 0.23 0.09 0.07 0.15 0.20 0.13 0.12 0.09 0.06 0.02 0.00
0.00 0.00 0.00 0.01 0.00 0.00 0.00 0.01 0.02 0.02 0.05 0.10 0.35 0.42 0.52 0.50 0.58 0.59 0.42 0.43 0.46 0.36 0.17 0.07 0.07 0.19 0.12 0.02 0.02 0.02 0.01 0.01
0.00 0.01 0.03 0.01 0.01 0.00 0.00 0.00 0.01 0.01 0.01 0.04 0.11 0.20 0.35 0.43 0.42 0.53 0.38 0.42 0.41 0.46 0.39 0.29 0.14 0.12 0.13 0.04 0.00 0.00 0.01 0.02
0.00 0.00 0.04 0.04 0.01 0.00 0.00 0.00 0.00 0.01 0.01 0.02 0.05 0.11 0.23 0.39 0.46 0.50 0.44 0.42 0.36 0.32 0.44 0.38 0.29 0.09 0.04 0.03 0.01 0.02 0.02 0.01
0.00 0.00 0.00 0.02 0.01 0.00 0.00 0.00 0.00 0.01 0.01 0.02 0.02 0.05 0.11 0.27 0.52 0.52 0.49 0.46 0.50 0.38 0.34 0.34 0.20 0.16 0.07 0.05 0.03 0.02 0.02 0.02
0.00 0.00 0.00 0.01 0.01 0.01 0.00 0.00 0.00 0.00 0.01 0.01 0.01 0.02 0.03 0.08 0.19 0.38 0.41 0.46 0.48 0.56 0.46 0.30 0.25 0.18 0.13 0.09 0.06 0.05 0.02 0.01
0.00 0.00 0.00 0.01 0.01 0.01 0.01 0.01 0.00 0.00 0.00 0.01 0.01 0.01 0.01 0.02 0.04 0.13 0.29 0.43 0.39 0.48 0.56 0.36 0.27 0.22 0.17 0.15 0.12 0.07 0.02 0.01

GFSFLT2_prec_precacc24_108.txt.gz
Total_Precipitation_Accumulation
0.00 0.01 0.01 0.02 0.05 0.08 0.14 0.26 0.40 0.37 0.30 0.20 0.21 0.16 0.32 0.52 0.42 0.35 0.31 0.30 0.47 0.53 0.65 0.66 0.55 0.39 0.31 0.26 0.22 0.12 0.06 0.10
0.00 0.00 0.01 0.03 0.03 0.03 0.04 0.09 0.17 0.16 0.15 0.20 0.38 0.40 0.36 0.33 0.33 0.43 0.61 0.55 0.40 0.29 0.41 0.48 0.44 0.31 0.24 0.17 0.13 0.26 0.18 0.12
0.00 0.00 0.00 0.02 0.04 0.04 0.04 0.06 0.10 0.05 0.03 0.07 0.21 0.26 0.29 0.34 0.41 0.50 0.54 0.58 0.61 0.54 0.48 0.41 0.36 0.31 0.24 0.24 0.12 0.12 0.13 0.03
0.00 0.00 0.00 0.01 0.02 0.03 0.02 0.05 0.04 0.02 0.02 0.01 0.12 0.16 0.27 0.41 0.42 0.51 0.61 0.50 0.64 0.66 0.68 0.52 0.39 0.21 0.19 0.19 0.09 0.09 0.06 0.04
0.00 0.00 0.00 0.00 0.01 0.02 0.02 0.04 0.03 0.02 0.04 0.04 0.07 0.13 0.27 0.46 0.30 0.46 0.84 0.75 0.68 0.58 0.44 0.37 0.34 0.28 0.14 0.08 0.13 0.09 0.05 0.06
0.00 0.00 0.00 0.00 0.00 0.01 0.01 0.02 0.02 0.01 0.01 0.08 0.17 0.31 0.24 0.28 0.19 0.38 0.94 0.89 0.57 0.34 0.21 0.24 0.32 0.35 0.23 0.22 0.06 0.14 0.09 0.04
0.00 0.00 0.00 0.00 0.00 0.01 0.00 0.01 0.02 0.01 0.01 0.19 0.34 0.42 0.22 0.24 0.21 0.34 0.75 0.72 0.76 0.38 0.20 0.24 0.27 0.33 0.28 0.21 0.04 0.14 0.08 0.07
0.00 0.00 0.00 0.00 0.00 0.01 0.01 0.01 0.01 0.03 0.03 0.17 0.58 0.49 0.33 0.35 0.32 0.29 0.48 0.53 0.62 0.50 0.18 0.26 0.28 0.25 0.27 0.15 0.06 0.15 0.11 0.07
0.00 0.00 0.00 0.00 0.00 0.01 0.01 0.01 0.01 0.03 0.05 0.20 0.60 0.57 0.46 0.39 0.40 0.29 0.31 0.38 0.34 0.44 0.37 0.35 0.31 0.28 0.23 0.16 0.09 0.12 0.08 0.07
0.00 0.00 0.00 0.00 0.00 0.00 0.01 0.01 0.02 0.04 0.07 0.22 0.57 0.73 0.55 0.52 0.41 0.32 0.38 0.34 0.21 0.30 0.20 0.28 0.34 0.28 0.21 0.13 0.10 0.05 0.04 0.06
0.00 0.00 0.00 0.00 0.00 0.00 0.01 0.01 0.03 0.04 0.10 0.19 0.51 0.86 0.54 0.51 0.49 0.37 0.38 0.37 0.22 0.17 0.10 0.13 0.24 0.28 0.21 0.17 0.11 0.05 0.04 0.07
0.00 0.00 0.00 0.00 0.00 0.01 0.01 0.02 0.03 0.04 0.07 0.20 0.46 0.99 0.68 0.57 0.61 0.43 0.35 0.30 0.29 0.19 0.12 0.16 0.18 0.18 0.20 0.22 0.15 0.08 0.06 0.11
0.00 0.00 0.00 0.00 0.00 0.00 0.02 0.02 0.03 0.04 0.06 0.23 0.39 0.74 0.86 0.61 0.62 0.50 0.40 0.26 0.18 0.14 0.12 0.12 0.22 0.21 0.24 0.31 0.19 0.14 0.07 0.09
0.00 0.00 0.00 0.00 0.00 0.00 0.00 0.01 0.02 0.02 0.04 0.13 0.62 0.65 0.68 0.61 0.63 0.52 0.39 0.35 0.34 0.24 0.09 0.08 0.15 0.21 0.13 0.16 0.17 0.25 0.09 0.04
0.00 0.00 0.00 0.00 0.00 0.00 0.00 0.01 0.01 0.02 0.04 0.09 0.34 0.41 0.52 0.50 0.57 0.59 0.42 0.42 0.46 0.36 0.17 0.08 0.07 0.19 0.12 0.04 0.06 0.11 0.05 0.01
0.00 0.02 0.05 0.03 0.03 0.01 0.00 0.00 0.01 0.01 0.01 0.04 0.11 0.20 0.35 0.43 0.41 0.53 0.37 0.39 0.41 0.46 0.39 0.31 0.19 0.19 0.15 0.05 0.01 0.00 0.02 0.04
0.00 0.01 0.07 0.10 0.08 0.05 0.04 0.01 0.00 0.00 0.01 0.02 0.05 0.11 0.23 0.39 0.46 0.50 0.43 0.40 0.37 0.33 0.46 0.41 0.39 0.25 0.17 0.08 0.02 0.02 0.02 0.02
0.00 0.00 0.00 0.02 0.03 0.01 0.02 0.02 0.00 0.01 0.01 0.02 0.02 0.05 0.11 0.27 0.52 0.53 0.50 0.46 0.49 0.39 0.36 0.41 0.35 0.39 0.28 0.18 0.05 0.03 0.03 0.02
0.00 0.00 0.00 0.01 0.01 0.01 0.01 0.03 0.00 0.00 0.01 0.01 0.01 0.02 0.03 0.08 0.19 0.38 0.41 0.46 0.48 0.56 0.51 0.43 0.53 0.47 0.38 0.20 0.07 0.06 0.04 0.02
0.00 0.00 0.00 0.01 0.01 0.00 0.01 0.02 0.02 0.00 0.00 0.01 0.01 0.01 0.01 0.02 0.04 0.14 0.29 0.43 0.39 0.49 0.61 0.52 0.47 0.58 0.42 0.32 0.18 0.10 0.06 0.03

GFSFLT2_prec_precacc24_111.txt.gz
Total_Precipitation_Accumulation
0.00 0.01 0.01 0.02 0.05 0.07 0.08 0.10 0.21 0.20 0.19 0.18 0.19 0.13 0.12 0.24 0.18 0.15 0.20 0.23 0.45 0.52 0.65 0.66 0.55 0.39 0.31 0.26 0.22 0.14 0.09 0.15
0.00 0.00 0.01 0.03 0.03 0.02 0.03 0.06 0.13 0.14 0.14 0.20 0.38 0.39 0.17 0.09 0.08 0.10 0.38 0.48 0.39 0.28 0.41 0.48 0.44 0.31 0.25 0.20 0.14 0.28 0.19 0.12
0.00 0.00 0.00 0.02 0.04 0.04 0.04 0.06 0.09 0.05 0.03 0.07 0.21 0.26 0.18 0.12 0.16 0.17 0.38 0.55 0.60 0.53 0.48 0.41 0.36 0.31 0.28 0.44 0.18 0.15 0.13 0.03
0.00 0.00 0.00 0.01 0.02 0.03 0.02 0.05 0.02 0.01 0.02 0.01 0.12 0.15 0.19 0.20 0.15 0.18 0.50 0.51 0.65 0.66 0.68 0.52 0.39 0.21 0.20 0.25 0.16 0.22 0.10 0.05
0.00 0.00 0.00 0.00 0.01 0.02 0.02 0.03 0.03 0.02 0.04 0.03 0.05 0.06 0.18 0.24 0.10 0.25 0.77 0.75 0.68 0.58 0.44 0.37 0.34 0.28 0.14 0.08 0.14 0.14 0.10 0.10
0.00 0.00 0.00 0.00 0.00 0.01 0.01 0.01 0.01 0.01 0.01 0.04 0.07 0.09 0.10 0.12 0.12 0.32 0.92 0.89 0.57 0.34 0.21 0.24 0.32 0.35 0.23 0.22 0.06 0.17 0.12 0.14
0.00 0.00 0.00 0.00 0.00 0.00 0.00 0.01 0.01 0.01 0.00 0.01 0.04 0.10 0.10 0.18 0.20 0.34 0.74 0.72 0.76 0.38 0.20 0.24 0.27 0.33 0.28 0.21 0.04 0.15 0.12 0.18
0.00 0.00 0.00 0.00 0.00 0.01 0.01 0.01 0.01 0.01 0.01 0.01 0.06 0.19 0.23 0.34 0.31 0.29 0.48 0.53 0.62 0.50 0.18 0.26 0.28 0.25 0.27 0.15 0.06 0.15 0.16 0.15
0.00 0.00 0.00 0.00 0.00 0.01 0.00 0.01 0.01 0.01 0.03 0.03 0.13 0.30 0.36 0.38 0.40 0.29 0.31 0.38 0.34 0.44 0.37 0.35 0.31 0.28 0.23 0.16 0.09 0.12 0.12 0.16
0.00 0.00 0.00 0.00 0.00 0.00 0.01 0.01 0.01 0.02 0.04 0.08 0.27 0.39 0.48 0.50 0.40 0.32 0.38 0.34 0.21 0.30 0.20 0.28 0.34 0.28 0.21 0.13 0.10 0.05 0.06 0.13
0.00 0.00 0.00 0.00 0.00 0.00 0.00 0.00 0.02 0.02 0.04 0.11 0.37 0.57 0.45 0.49 0.48 0.37 0.38 0.37 0.22 0.17 0.10 0.13 0.24 0.29 0.24 0.19 0.11 0.05 0.04 0.11
0.00 0.00 0.00 0.00 0.00 0.01 0.01 0.01 0.02 0.03 0.03 0.08 0.38 0.84 0.58 0.55 0.59 0.43 0.35 0.30 0.29 0.19 0.12 0.16 0.18 0.19 0.25 0.25 0.15 0.08 0.06 0.15
0.00 0.00 0.00 0.00 0.00 0.00 0.01 0.01 0.02 0.03 0.04 0.14 0.23 0.63 0.79 0.58 0.59 0.49 0.40 0.26 0.18 0.14 0.12 0.13 0.23 0.23 0.32 0.37 0.21 0.15 0.07 0.13
0.00 0.00 0.00 0.00 0.00 0.00 0.00 0.01 0.01 0.02 0.03 0.09 0.44 0.50 0.62 0.57 0.59 0.51 0.39 0.35 0.34 0.24 0.10 0.08 0.16 0.22 0.17 0.21 0.22 0.37 0.13 0.07
0.00 0.00 0.00 0.00 0.00 0.01 0.00 0.01 0.03 0.03 0.03 0.05 0.21 0.34 0.46 0.44 0.49 0.56 0.42 0.42 0.46 0.37 0.18 0.09 0.08 0.20 0.14 0.06 0.06 0.14 0.09 0.03
0.00 0.02 0.05 0.03 0.08 0.04 0.03 0.01 0.00 0.01 0.01 0.03 0.06 0.16 0.31 0.40 0.35 0.48 0.37 0.40 0.41 0.46 0.40 0.31 0.20 0.20 0.18 0.06 0.03 0.01 0.03 0.08
0.00 0.02 0.08 0.11 0.09 0.09 0.13 0.04 0.03 0.01 0.03 0.03 0.05 0.09 0.22 0.37 0.44 0.48 0.43 0.39 0.37 0.33 0.47 0.44 0.41 0.27 0.18 0.10 0.04 0.03 0.03 0.04
0.00 0.00 0.01 0.05 0.07 0.05 0.03 0.03 0.01 0.02 0.02 0.02 0.02 0.04 0.10 0.26 0.51 0.52 0.50 0.46 0.48 0.39 0.36 0.43 0.38 0.42 0.31 0.24 0.13 0.05 0.03 0.03
0.00 0.00 0.00 0.01 0.01 0.03 0.04 0.09 0.01 0.00 0.01 0.01 0.01 0.02 0.03 0.08 0.19 0.38 0.42 0.47 0.47 0.55 0.50 0.43 0.56 0.50 0.45 0.31 0.19 0.15 0.07 0.04
0.00 0.00 0.00 0.01 0.01 0.01 0.03 0.05 0.04 0.03 0.00 0.01 0.02 0.01 0.01 0.02 0.04 0.14 0.30 0.43 0.40 0.48 0.61 0.52 0.47 0.67 0.62 0.58 0.40 0.20 0.11 0.06

GFSFLT2_prec_precacc24_114.txt.gz
Total_Precipitation_Accumulation
0.00 0.00 0.01 0.01 0.02 0.01 0.01 0.00 0.04 0.08 0.13 0.17 0.16 0.06 0.05 0.21 0.17 0.09 0.09 0.16 0.35 0.49 0.64 0.66 0.55 0.39 0.31 0.26 0.22 0.14 0.10 0.16
0.00 0.00 0.01 0.02 0.03 0.01 0.00 0.00 0.02 0.06 0.12 0.19 0.37 0.36 0.17 0.09 0.07 0.06 0.17 0.26 0.28 0.24 0.41 0.48 0.44 0.31 0.25 0.21 0.14 0.28 0.20 0.13
0.00 0.00 0.00 0.02 0.03 0.04 0.02 0.02 0.04 0.02 0.03 0.07 0.20 0.25 0.18 0.12 0.16 0.11 0.17 0.25 0.46 0.52 0.48 0.41 0.36 0.31 0.28 0.45 0.20 0.16 0.16 0.05
0.00 0.00 0.00 0.01 0.02 0.03 0.02 0.04 0.02 0.01 0.02 0.01 0.12 0.15 0.19 0.20 0.14 0.09 0.11 0.26 0.52 0.65 0.68 0.52 0.39 0.21 0.20 0.26 0.21 0.40 0.30 0.22
0.00 0.00 0.00 0.00 0.01 0.02 0.02 0.03 0.03 0.01 0.03 0.03 0.05 0.06 0.17 0.23 0.09 0.12 0.14 0.45 0.57 0.57 0.44 0.37 0.34 0.28 0.14 0.08 0.15 0.19 0.17 0.21
0.00 0.00 0.00 0.00 0.00 0.01 0.01 0.01 0.01 0.01 0.01 0.04 0.07 0.08 0.08 0.09 0.09 0.19 0.36 0.77 0.56 0.34 0.21 0.24 0.32 0.35 0.23 0.22 0.06 0.18 0.15 0.17
0.00 0.00 0.00 0.00 0.00 0.00 0.00 0.01 0.01 0.01 0.00 0.00 0.04 0.08 0.07 0.09 0.13 0.24 0.35 0.67 0.76 0.38 0.20 0.24 0.27 0.33 0.28 0.21 0.04 0.16 0.14 0.24
0.00 0.00 0.00 0.00 0.00 0.00 0.00 0.00 0.01 0.01 0.01 0.00 0.01 0.06 0.09 0.14 0.19 0.23 0.25 0.48 0.62 0.50 0.18 0.26 0.28 0.25 0.27 0.15 0.06 0.15 0.18 0.23
0.00 0.00 0.00 0.00 0.00 0.00 0.00 0.00 0.00 0.01 0.01 0.01 0.01 0.05 0.10 0.20 0.28 0.24 0.26 0.37 0.34 0.44 0.37 0.35 0.31 0.28 0.23 0.16 0.09 0.12 0.12 0.18
0.00 0.00 0.00 0.00 0.00 0.00 0.00 0.00 0.00 0.01 0.01 0.03 0.03 0.05 0.12 0.32 0.32 0.29 0.37 0.34 0.21 0.30 0.20 0.28 0.34 0.28 0.21 0.13 0.10 0.05 0.06 0.14
0.00 0.00 0.00 0.00 0.00 0.00 0.00 0.00 0.01 0.00 0.01 0.03 0.08 0.14 0.20 0.41 0.45 0.34 0.37 0.37 0.22 0.17 0.10 0.13 0.24 0.29 0.24 0.19 0.11 0.05 0.04 0.11
0.00 0.00 0.00 0.00 0.00 0.01 0.01 0.01 0.01 0.01 0.01 0.03 0.20 0.46 0.36 0.48 0.57 0.40 0.34 0.30 0.29 0.19 0.12 0.16 0.18 0.19 0.25 0.26 0.16 0.09 0.06 0.15
0.00 0.00 0.00 0.00 0.00 0.00 0.01 0.01 0.02 0.02 0.02 0.04 0.12 0.46 0.53 0.50 0.56 0.47 0.40 0.26 0.18 0.14 0.12 0.13 0.23 0.23 0.33 0.38 0.23 0.16 0.07 0.13
0.00 0.00 0.00 0.00 0.00 0.02 0.01 0.00 0.01 0.01 0.02 0.05 0.19 0.41 0.43 0.44 0.53 0.48 0.39 0.35 0.34 0.24 0.10 0.08 0.16 0.24 0.19 0.24 0.25 0.40 0.15 0.07
0.00 0.00 0.00 0.02 0.03 0.03 0.03 0.03 0.03 0.04 0.02 0.04 0.09 0.17 0.34 0.28 0.39 0.49 0.40 0.42 0.47 0.37 0.18 0.09 0.09 0.21 0.16 0.08 0.09 0.16 0.10 0.04
0.00 0.02 0.04 0.02 0.08 0.05 0.05 0.02 0.01 0.00 0.01 0.03 0.04 0.07 0.19 0.26 0.20 0.39 0.34 0.39 0.41 0.47 0.40 0.32 0.22 0.21 0.19 0.08 0.05 0.02 0.03 0.08
0.00 0.01 0.08 0.12 0.09 0.10 0.13 0.06 0.06 0.02 0.04 0.04 0.06 0.03 0.15 0.24 0.35 0.37 0.39 0.38 0.37 0.33 0.47 0.45 0.43 0.29 0.19 0.11 0.06 0.05 0.05 0.04
0.00 0.00 0.01 0.05 0.08 0.07 0.04 0.03 0.01 0.02 0.02 0.03 0.02 0.03 0.05 0.18 0.40 0.47 0.46 0.45 0.48 0.39 0.36 0.44 0.39 0.43 0.32 0.27 0.15 0.08 0.05 0.04
0.00 0.01 0.01 0.01 0.03 0.05 0.07 0.10 0.02 0.01 0.02 0.01 0.01 0.02 0.02 0.06 0.14 0.34 0.38 0.47 0.48 0.55 0.51 0.44 0.58 0.52 0.46 0.33 0.21 0.17 0.09 0.07
0.00 0.00 0.00 0.01 0.02 0.03 0.04 0.06 0.04 0.04 0.01 0.01 0.02 0.01 0.02 0.02 0.04 0.13 0.29 0.42 0.40 0.49 0.61 0.53 0.48 0.68 0.63 0.60 0.44 0.28 0.20 0.18

GFSFLT2_prec_precacc24_120.txt.gz
Total_Precipitation_Accumulation
0.00 0.00 0.00 0.00 0.00 0.00 0.00 0.00 0.01 0.00 0.01 0.04 0.07 0.01 0.02 0.12 0.09 0.05 0.03 0.07 0.14 0.20 0.43 0.58 0.54 0.39 0.31 0.27 0.24 0.28 0.16 0.18
0.00 0.00 0.00 0.00 0.00 0.00 0.00 0.00 0.00 0.01 0.05 0.06 0.11 0.11 0.08 0.05 0.05 0.04 0.07 0.05 0.04 0.05 0.15 0.32 0.40 0.32 0.25 0.26 0.32 0.54 0.29 0.19
0.00 0.00 0.00 0.00 0.00 0.00 0.00 0.00 0.00 0.00 0.02 0.02 0.10 0.22 0.15 0.11 0.16 0.10 0.11 0.03 0.05 0.09 0.13 0.24 0.30 0.29 0.29 0.55 0.45 0.35 0.33 0.17
0.00 0.00 0.00 0.00 0.00 0.01 0.01 0.02 0.01 0.00 0.02 0.01 0.12 0.16 0.21 0.20 0.14 0.07 0.04 0.08 0.05 0.07 0.28 0.35 0.29 0.20 0.19 0.27 0.29 0.59 0.56 0.51
0.00 0.00 0.00 0.00 0.00 0.01 0.01 0.02 0.02 0.01 0.04 0.03 0.05 0.07 0.19 0.23 0.09 0.06 0.07 0.05 0.07 0.06 0.15 0.20 0.25 0.25 0.14 0.10 0.20 0.25 0.31 0.45
0.00 0.00 0.00 0.00 0.00 0.00 0.01 0.01 0.01 0.01 0.01 0.04 0.07 0.07 0.08 0.08 0.08 0.12 0.14 0.11 0.07 0.06 0.03 0.10 0.24 0.32 0.22 0.23 0.10 0.23 0.22 0.33
0.00 0.00 0.00 0.00 0.00 0.00 0.00 0.01 0.01 0.01 0.00 0.01 0.03 0.05 0.06 0.08 0.11 0.14 0.16 0.16 0.11 0.07 0.02 0.12 0.22 0.31 0.28 0.22 0.05 0.18 0.22 0.37
0.00 0.00 0.00 0.00 0.00 0.00 0.00 0.00 0.01 0.02 0.01 0.00 0.00 0.03 0.06 0.06 0.11 0.12 0.14 0.20 0.12 0.03 0.03 0.17 0.24 0.24 0.27 0.16 0.06 0.17 0.24 0.37
0.00 0.00 0.00 0.00 0.00 0.00 0.00 0.00 0.00 0.01 0.01 0.01 0.00 0.01 0.04 0.06 0.09 0.12 0.14 0.18 0.11 0.11 0.24 0.27 0.28 0.27 0.23 0.16 0.09 0.12 0.15 0.26
0.00 0.00 0.00 0.00 0.00 0.00 0.00 0.00 0.00 0.00 0.01 0.01 0.01 0.01 0.04 0.10 0.09 0.14 0.20 0.18 0.10 0.13 0.15 0.24 0.32 0.27 0.21 0.13 0.10 0.05 0.06 0.16
0.00 0.00 0.00 0.00 0.00 0.00 0.00 0.00 0.00 0.00 0.00 0.01 0.02 0.01 0.02 0.11 0.12 0.15 0.18 0.20 0.13 0.09 0.07 0.10 0.23 0.28 0.24 0.19 0.11 0.05 0.05 0.12
0.00 0.00 0.00 0.00 0.00 0.01 0.00 0.00 0.00 0.00 0.00 0.00 0.01 0.02 0.01 0.05 0.11 0.20 0.12 0.13 0.14 0.11 0.10 0.13 0.16 0.19 0.25 0.26 0.16 0.09 0.07 0.15
0.00 0.00 0.00 0.00 0.00 0.00 0.01 0.02 0.00 0.00 0.01 0.01 0.02 0.04 0.05 0.11 0.20 0.23 0.22 0.13 0.08 0.09 0.11 0.12 0.22 0.23 0.33 0.38 0.23 0.16 0.08 0.13
0.00 0.01 0.00 0.01 0.00 0.09 0.07 0.04 0.00 0.00 0.01 0.01 0.03 0.04 0.03 0.10 0.29 0.30 0.24 0.24 0.26 0.20 0.10 0.08 0.16 0.24 0.20 0.24 0.26 0.40 0.16 0.08
0.00 0.01 0.01 0.07 0.16 0.15 0.09 0.05 0.04 0.03 0.01 0.01 0.01 0.01 0.02 0.05 0.18 0.36 0.30 0.32 0.42 0.37 0.18 0.09 0.10 0.22 0.16 0.08 0.09 0.16 0.10 0.05
0.00 0.02 0.08 0.16 0.28 0.07 0.10 0.04 0.01 0.00 0.00 0.01 0.01 0.00 0.01 0.02 0.04 0.24 0.26 0.31 0.38 0.47 0.41 0.33 0.23 0.22 0.19 0.08 0.05 0.03 0.04 0.08
0.00 0.02 0.12 0.19 0.14 0.13 0.17 0.08 0.08 0.02 0.03 0.03 0.05 0.03 0.00 0.00 0.03 0.20 0.29 0.34 0.35 0.33 0.47 0.45 0.43 0.29 0.19 0.11 0.07 0.06 0.05 0.05
0.00 0.01 0.03 0.18 0.20 0.20 0.20 0.19 0.04 0.02 0.02 0.02 0.02 0.01 0.01 0.01 0.04 0.18 0.29 0.35 0.43 0.37 0.36 0.44 0.39 0.44 0.34 0.28 0.16 0.10 0.06 0.06
0.01 0.01 0.02 0.10 0.18 0.26 0.19 0.30 0.16 0.02 0.02 0.01 0.01 0.02 0.01 0.01 0.02 0.10 0.19 0.33 0.40 0.49 0.48 0.42 0.57 0.52 0.47 0.34 0.22 0.18 0.11 0.09
0.03 0.01 0.01 0.03 0.06 0.15 0.12 0.16 0.08 0.05 0.02 0.04 0.07 0.03 0.01 0.03 0.09 0.13 0.22 0.33 0.35 0.45 0.59 0.52 0.48 0.69 0.64 0.60 0.44 0.28 0.21 0.21